sat.trackr.live / text

‹ back to catalog

HAIYANG-1C

NORAD 43609 · 2018-068A

PAYLOAD ACTIVE UNKNOWN

§ Identity

Operator
Country
PRC
Launch date
2018-09-07
Launch site
TAISC
Launch vehicle
Mass (kg)
RCS (m²)

External: N2YO · Heavens-Above · Gunter

§ Orbital elements

Epoch: 2026-09-20T04:45:52.945344Z

Period
100.41 min
Inclination
98.5106°
Eccentricity
0.0011266
Mean motion
14.34139821 rev/d
Perigee alt
769.9 km
Apogee alt
786.0 km
Semi-major
7,156.1 km
B*
2.5007e-6
RAAN
334.0880°
Arg perigee
165.9510°
Mean anomaly
194.1990°
Rev number
42,070

§ Raw data

HAIYANG-1C1 43609U 18068A   26263.19852946 -.00000036  00000+0  25007-5 0  99962 43609  98.5106 334.0880 0011266 165.9510 194.1990 14.34139821420704

JSON: /api/v1/satellites/43609 · /tle

For live sub-satellite position, see the globe view (requires WebGL).

§ Visibility from observer

Set your observer location to see the next 7 days of passes ≥ 10°. The values pass through the URL so the page stays shareable.

No JS? Fill the form by hand. The geolocation button needs JavaScript.

§ Radio — SatNOGS DB

ModeDescriptionDownlinkUplink
FM S-band telemetry 2.210 GHz

1 transmitter · refreshed weekly from db.satnogs.org